Location: Vihti�l�
(61.3833°N, 23.0667°E)
Time: 05:29:36
(UTC+00:00)

Timation 2 Rocket - Pass Details

Date: 29 November 2020
Orbit: 903 x 1078 km, 70.0° (Epoch: 22 January)

Event Time Altitude Azimuth Distance (km) Brightness Sun altitude
Exits shadow 02:46:35 67° 335° (NNW) 1,111 4.1 -29.5°
Drops below altitude 10° 02:53:08 10° 47° (NE) 2,880 7.1 -28.7°
Sets 02:55:50 0° 51° (NE) 3,853 8.0 -28.4°
